DELTA 1 DEB, 18429

Orbit data source: Space-Track

DELTA 1 DEB, 18429 is space debris in SSO originally from a launch on Thu, 29 Jul 1976 UTC launched from the Air Force Western Test Range (AFWTR). Debris objects in space refer to the collection of defunct objects orbiting the Earth. Examples of debris include non-operational satellites, rocket bodies, and fragments generated from explosions, collisions, or faulty payload assembly.

Loading next visibility...
Identifier
18429, 1976-077EZ
Orbit
SSO
Country
Flag of USUS
Related business
Manufacturer
Unknown
Mission
Spacecraft
Bus & Motor
Unknown
Mass
Unknown
Launch date (UTC)
1976-07-29 (49 years ago)
Launch vehicle
Unknown
Launch site
Air Force Western Test Range (AFWTR)
Object type
Payload
Rocket body
Debris
Shape & HBR
Unknown shape, 0.1 m
Radar Cross Section
Small (<0.1 m²)

Expand to show TLE details & history
Last TLE update: 4 months ago

TLE from 4 months ago
0 DELTA 1 DEB
1 18429U 76077EZ  25282.11593269 -.00000105  00000-0 -64849-3 0  9998
2 18429 102.5216 336.3373 0229043 266.1363 161.8776 12.06380537585401
Epoch: 2025-10-09T02:46Z
TLE epoch observation values (Epoch: 2025-10-09T02:46:56.584Z)
Latitude
65.61349°
Longitude
-112.56247°
Altitude
1,838.773 km
Speed
6.895 km/s
True Right ascension
20h 28m 36s
True Declination
65° 30' 04"
Sunlit
Object was in daylight at epoch
Visualization orbit readout
Latitude
Unknown
Longitude
Unknown
Altitude
Unknown
Speed
Unknown
Apparent Right ascension
Unknown
Apparent Declination
Unknown
Sunlit
N/A
Visualization observer readout
Local Sidereal Time
21:05:24
Azimuth
Unknown
Elevation
Unknown
Doppler factor
Unknown
Orbital elements
Apogee altitude
1,833.948 km
Perigee altitude
1,466.187 km
Semi-major axis
8,028.204 km
Eccentricity
0.0229
Inclination
102.5216°
RAAN
336.3373°
Arg. of periapsis
266.1363°
True anomaly
162.67232°
Mean anomaly
161.8776°
Eccentric anomaly
162.27709°
Mean motion
3.01728 °/min
Orbital period
119.31 mins
BSTAR
-0.00064849
Loading maneuver chart data...
Computing Atmospheric mass density...
Loading historical data...
Loading historical data...
Loading historical data...
Loading historical data...
Loading historical data...
Loading historical data...
Loading historical data...

Documentation

Showing up to 5 results
|